Temperature
19 19 19 19 18 18 19 20 20 21 22 22 22 22 20 20 20 19 18 19 19 19 19 19 19 19 19 19 19 19 19 19 19 19 19 19 19 19 19 19 19 19 19 19 19 19 19 19 19
19 19 19 19 18 19 19 20 20 22 23 23 22 22 20 19 19 19 18 19 19 19 19 19 18 18 18 18 18 18 18 18 18 18 18 18 18 18 18 18 18 18 18 18 19 19 19 19 19
19 19 19 18 19 19 20 20 21 23 23 23 22 22 21 20 19 19 19 19 19 19 19 19 18 18 18 18 18 18 18 18 18 18 18 18 18 18 18 18 18 18 18 18 18 18 18 18 18
19 19 19 18 19 20 19 20 21 22 23 23 22 21 20 20 20 19 19 19 19 19 19 18 18 18 18 18 18 18 18 18 17 17 17 17 17 17 18 18 18 18 18 18 18 18 18 18 18
19 19 18 19 20 20 20 20 21 22 23 22 21 20 19 20 20 19 19 19 19 19 19 18 18 18 18 18 17 17 17 17 17 17 17 17 17 17 17 17 17 17 17 18 18 18 18 18 18
20 18 19 19 20 20 20 21 21 22 22 22 21 20 19 19 19 19 19 19 19 19 19 18 18 18 17 17 17 17 17 17 16 16 16 16 16 17 17 17 17 17 17 17 17 18 18 18 18
19 18 19 20 19 20 21 21 22 22 22 22 21 19 19 19 20 19 19 19 19 19 19 18 18 18 17 17 17 16 16 16 16 16 16 16 16 16 16 16 16 16 17 17 17 17 17 18 18
20 18 19 19 20 20 21 21 23 23 23 22 22 20 19 20 20 20 19 19 19 19 19 18 18 17 17 17 16 16 16 16 16 15 15 15 15 16 16 16 16 16 16 16 17 17 17 17 17
20 18 18 19 19 20 20 21 23 23 23 22 22 22 21 20 20 20 19 19 19 19 18 18 18 17 17 17 16 16 16 16 15 15 15 15 15 15 15 15 15 16 16 16 16 16 17 17 17
19 18 19 19 19 19 20 21 22 22 22 21 22 21 21 20 20 20 20 19 19 19 18 18 18 17 17 17 16 16 16 15 15 15 15 15 15 15 15 15 15 15 15 16 16 16 16 16 17
18 18 19 19 20 20 21 21 22 22 20 21 21 21 21 20 20 20 20 20 19 19 19 18 18 17 17 17 16 16 16 15 15 15 15 15 15 15 15 15 15 15 15 15 15 16 16 16 16
18 19 19 19 20 21 21 22 22 22 23 23 23 22 21 21 21 20 20 20 19 19 19 18 18 18 17 17 16 16 16 15 15 15 15 15 15 15 15 15 15 15 15 15 15 15 16 16 16
19 19 19 19 21 21 22 22 22 23 24 23 22 22 21 21 21 21 20 20 20 19 19 19 18 18 17 17 16 16 15 15 15 15 15 15 15 15 15 15 15 15 15 15 15 15 15 16 16
19 19 19 20 21 21 22 22 22 23 23 22 22 22 22 22 21 21 21 20 20 20 19 19 18 18 17 16 16 16 15 15 15 15 15 15 15 14 14 14 15 15 15 15 15 15 15 15 16
19 19 20 20 20 21 22 21 22 23 23 22 22 22 22 22 22 21 21 21 20 20 19 19 18 17 17 16 16 15 15 15 15 15 14 14 14 14 14 14 14 14 15 15 15 15 15 15 15
19 19 19 20 20 21 21 21 22 23 23 22 22 22 22 22 22 22 21 21 20 20 19 19 18 17 17 16 16 15 15 15 14 14 14 14 14 14 14 14 14 14 14 14 15 15 15 15 15
18 18 19 20 21 21 21 21 22 23 23 22 22 22 22 22 22 22 21 21 21 20 19 19 18 17 17 16 15 15 15 14 14 14 14 14 14 14 14 14 14 14 14 14 14 14 15 15 15
18 18 19 20 21 21 20 20 21 23 23 22 22 22 22 22 22 22 21 21 21 20 19 19 18 17 17 16 15 15 15 14 14 14 14 14 14 13 13 13 13 14 14 14 14 14 14 15 15
19 19 19 20 21 21 21 21 21 22 22 22 22 22 22 22 22 22 21 21 20 20 19 18 18 17 17 16 15 15 14 14 14 14 14 13 13 13 13 13 13 13 13 14 14 14 14 14 15
20 20 20 20 22 22 21 21 21 21 22 23 22 22 22 22 21 21 21 21 20 20 19 19 18 17 17 16 15 15 14 14 14 14 13 13 13 13 13 13 13 13 13 13 13 14 14 14 14
20 20 20 21 22 22 22 21 21 22 23 23 23 23 23 22 22 21 21 21 20 20 20 19 18 18 17 16 15 15 14 14 14 13 13 13 13 13 13 13 13 13 13 13 13 13 14 14 14
20 21 21 22 20 20 21 20 20 21 21 22 22 23 23 22 22 22 21 21 21 20 20 19 18 18 17 16 16 15 14 14 14 14 13 13 13 13 13 13 13 13 13 13 13 13 13 14 14
21 22 22 22 21 19 20 19 20 21 22 22 22 23 23 23 23 22 22 21 21 20 20 19 18 17 17 16 16 15 14 14 14 14 13 13 13 13 13 13 13 13 13 13 13 13 13 13 14
23 21 20 18 18 19 20 20 20 20 22 23 22 23 23 23 23 22 22 21 20 20 19 19 18 18 17 16 16 15 14 14 14 14 14 13 13 13 13 13 13 13 13 13 13 13 13 13 13
22 19 18 18 17 18 20 20 20 21 22 23 23 24 24 24 23 22 22 21 20 20 19 19 18 18 17 16 16 15 14 14 14 14 14 13 13 13 13 13 13 13 13 13 13 13 13 13 13
22 19 18 19 19 18 19 20 21 23 23 24 25 25 24 24 23 23 22 22 21 20 20 19 19 18 17 16 16 15 15 14 14 14 14 14 13 13 13 13 13 13 13 13 13 13 13 13 13
23 20 19 18 19 19 19 21 22 23 23 23 23 24 24 24 23 23 23 22 21 21 20 20 19 18 17 17 16 15 15 14 14 14 14 14 14 14 13 13 13 13 13 13 13 13 13 13 13
23 21 18 18 19 18 19 20 20 22 23 23 22 23 24 24 24 23 23 22 22 21 20 20 19 18 18 17 16 15 15 15 14 14 14 14 14 14 14 13 13 13 13 13 13 13 13 13 13
23 22 19 16 17 18 19 19 20 21 21 22 22 24 24 24 24 24 23 23 22 21 20 20 19 18 18 17 16 15 15 15 14 14 14 14 14 14 14 14 13 13 13 13 13 13 13 13 13
23 22 19 19 19 17 17 18 21 20 21 22 22 24 24 24 24 24 23 23 22 21 20 20 19 18 18 17 16 16 15 15 15 15 14 14 14 14 14 14 14 13 13 13 13 13 13 13 13
Wind_Speed
9 6 3 2 3 2 1 2 2 2 0 2 8 10 8 6 5 5 3 9 12 10 9 11 10 9 7 7 6 6 5 5 4 4 3 3 3 3 3 3 2 2 2 2 2 2 3 2 3
6 4 2 3 2 1 2 3 4 4 5 7 8 8 7 6 5 7 5 11 13 11 10 10 11 9 8 7 6 5 4 4 3 3 2 2 2 1 1 1 1 1 1 1 2 2 2 2 1
4 2 2 2 1 2 2 4 5 2 4 3 5 5 5 6 6 5 8 13 11 9 10 11 11 10 8 7 6 5 4 3 2 2 1 1 1 1 1 1 1 1 2 1 1 2 2 2 2
3 2 2 2 2 3 4 5 4 1 2 4 6 6 4 3 5 8 12 14 12 9 10 11 12 10 9 7 6 5 3 2 1 1 0 1 2 2 3 3 3 3 3 3 3 3 3 3 3
2 2 2 0 2 2 3 5 5 2 2 4 6 6 4 2 8 13 13 13 12 9 9 11 12 11 9 8 6 5 4 2 1 0 1 2 3 4 4 4 5 5 5 5 4 5 4 5 5
2 2 1 1 1 1 3 4 2 2 4 5 7 7 4 4 9 11 12 12 11 10 8 10 12 11 9 8 6 5 3 2 1 2 3 3 4 5 6 6 6 6 6 6 6 6 6 6 6
3 2 1 1 2 2 2 2 3 3 5 5 7 7 5 5 8 10 11 10 9 8 7 7 9 9 9 8 7 5 4 3 3 3 4 5 5 6 7 7 7 7 7 7 7 7 7 8 7
3 3 0 1 2 3 2 1 3 4 4 6 6 8 7 8 8 10 9 8 8 7 7 6 7 7 7 7 7 6 4 3 3 4 6 6 7 7 7 8 8 8 9 8 8 8 9 9 8
3 3 1 2 2 2 2 1 1 2 5 3 3 5 9 12 10 9 7 5 5 6 5 5 4 5 6 7 6 5 5 4 3 4 6 6 5 6 7 7 7 8 8 8 8 9 9 9 9
3 2 2 2 3 3 3 3 2 3 5 4 5 6 11 12 11 10 9 8 7 6 5 5 5 5 5 4 3 3 3 3 3 4 5 4 4 5 4 5 6 7 7 8 8 8 8 7 5
3 4 2 2 4 3 3 4 2 6 4 7 12 13 12 10 10 10 9 8 8 7 6 6 6 5 4 2 2 1 0 1 2 3 2 2 3 3 3 3 4 4 4 4 5 5 4 3 3
2 2 1 3 4 3 3 3 2 4 8 11 15 16 13 12 12 11 10 9 8 7 7 6 6 5 4 3 1 1 1 1 0 2 3 2 2 2 2 2 2 2 2 2 2 2 2 3 3
2 1 3 6 5 4 4 5 3 4 5 11 13 14 14 13 11 10 11 10 9 8 7 7 7 6 4 3 2 2 1 1 1 3 5 3 1 2 2 2 2 2 2 1 1 1 1 2 2
2 2 3 5 4 3 4 5 2 5 8 13 14 14 13 12 11 10 10 9 9 9 8 6 7 6 6 4 3 2 2 2 3 4 5 5 3 2 2 2 3 2 2 1 1 1 1 1 1
0 2 4 3 2 2 1 4 5 7 10 13 13 12 12 11 11 12 12 11 11 10 8 7 7 7 6 5 3 3 3 4 3 3 6 6 5 3 2 2 3 3 3 3 2 2 1 1 1
2 3 2 4 2 3 2 6 7 7 11 12 11 11 11 10 10 11 12 12 11 10 8 7 8 7 6 4 4 2 3 3 2 3 5 6 6 5 3 3 3 3 3 2 2 2 2 2 1
3 1 2 4 3 2 3 7 7 6 10 11 11 11 10 9 8 10 12 13 12 11 9 8 8 7 6 5 4 3 3 3 2 3 3 4 5 6 3 2 2 3 3 3 2 2 1 1 1
1 1 3 4 4 4 5 9 9 7 9 11 11 10 10 11 11 11 11 11 11 10 9 9 8 7 6 5 4 3 3 2 1 1 2 3 4 5 4 2 3 3 3 3 2 2 1 1 1
4 3 2 5 4 4 8 10 10 8 8 10 10 11 11 11 9 10 11 11 10 10 9 9 8 6 5 3 3 2 1 0 0 0 1 2 3 4 3 3 3 3 2 2 2 1 2 2 2
3 1 2 5 4 4 6 9 8 7 9 10 12 12 13 10 8 10 10 10 11 11 10 9 9 7 6 4 3 3 2 1 1 1 1 1 1 2 2 3 2 2 2 3 3 2 1 2 2
4 4 4 4 3 3 2 8 6 5 4 6 8 10 12 15 15 13 12 10 10 11 11 11 9 8 7 5 4 3 3 2 2 1 2 2 1 1 2 2 2 2 2 2 2 2 2 2 2
4 5 4 2 2 4 2 3 8 5 1 5 7 8 11 12 12 13 12 12 12 11 10 10 9 8 7 6 5 5 3 2 3 2 2 2 1 1 1 1 2 2 2 1 2 2 1 2 2
6 4 2 1 1 3 2 2 7 4 1 5 7 8 10 12 14 15 14 14 11 10 10 10 10 8 7 7 7 6 4 3 2 1 1 1 2 2 1 1 2 2 1 1 2 2 2 2 2
2 4 5 5 4 2 3 3 4 4 5 4 4 7 8 11 12 12 11 10 9 9 9 10 10 8 7 7 7 6 6 4 2 1 1 1 1 2 2 1 1 1 1 1 2 2 2 2 2
5 6 5 6 5 5 4 2 5 6 5 5 6 6 7 10 11 11 11 11 11 11 11 10 11 9 8 7 6 7 7 6 5 4 3 2 1 2 3 1 0 0 1 1 2 2 2 2 2
3 8 6 2 3 5 5 2 5 5 4 2 4 5 7 9 11 13 14 14 13 13 12 11 11 9 8 8 7 6 6 4 4 4 4 4 3 3 3 2 1 1 0 1 2 2 1 2 2
3 2 6 6 1 2 4 4 6 4 3 1 1 3 6 9 11 13 13 13 13 14 13 13 12 10 9 9 7 6 6 6 5 5 4 3 3 3 3 3 2 1 0 1 2 2 1 2 2
5 6 6 4 2 2 5 3 3 5 4 3 2 4 6 8 10 11 12 13 13 13 12 11 11 11 9 9 8 6 6 7 6 5 4 4 4 3 3 2 2 2 1 1 1 1 1 2 1
1 3 5 4 5 4 1 6 5 6 6 5 6 6 7 8 10 12 12 12 12 10 10 11 10 9 9 9 7 7 7 6 6 5 5 5 4 4 4 3 3 2 2 2 1 1 1 1 1
5 5 6 4 1 4 3 6 7 5 5 4 5 5 5 7 8 9 10 10 10 11 11 11 11 10 10 9 8 8 7 6 6 6 6 5 4 4 4 4 3 3 3 3 3 2 1 1 1
Wind_Direction
171 141 104 81 68 63 271 267 251 238 212 69 80 86 85 68 87 131 184 147 139 142 143 139 135 131 127 123 118 118 119 115 108 104 100 98 95 96 96 96 100 103 106 107 107 106 108 107 108
149 140 90 73 95 108 260 253 233 214 159 125 89 85 83 79 92 115 128 141 141 142 143 139 134 128 124 121 118 116 117 113 106 99 94 83 77 83 95 115 122 139 140 139 145 152 147 147 139
162 161 112 96 144 179 214 248 240 238 161 128 87 64 85 116 123 134 145 142 137 136 140 141 134 129 125 122 118 115 110 105 98 87 76 48 8 335 285 248 233 224 212 193 191 194 193 195 202
127 62 66 95 207 210 207 242 260 305 73 79 106 76 70 105 136 137 137 138 135 140 144 144 139 136 134 132 128 123 116 110 100 83 345 298 296 294 288 266 253 248 239 225 223 226 220 218 227
78 100 74 133 217 223 230 260 255 239 100 89 100 95 78 69 115 131 138 141 141 148 152 153 147 145 144 142 137 132 132 130 117 348 300 291 286 285 279 273 262 257 250 241 236 237 232 225 233
80 82 100 215 207 260 234 224 241 119 116 113 106 113 130 146 128 138 142 146 150 154 159 159 158 156 156 154 153 156 162 174 214 277 289 292 287 283 280 271 262 257 254 252 247 242 240 237 238
137 116 196 207 179 245 242 207 171 156 146 148 130 113 136 169 153 143 143 147 151 152 155 166 171 169 166 167 172 178 193 214 241 272 284 289 289 285 283 276 265 257 256 257 256 252 250 246 243
150 109 300 227 186 230 265 281 185 163 137 130 126 137 164 188 160 138 138 141 149 155 160 171 179 175 174 183 191 194 209 228 254 276 284 287 289 292 289 281 266 257 256 259 261 258 255 250 247
106 86 212 236 190 245 273 287 314 79 101 92 116 150 163 159 146 132 127 132 155 162 168 172 170 173 183 198 211 213 225 242 272 292 295 298 296 296 291 283 267 261 258 261 263 262 259 255 252
112 141 228 238 197 215 250 240 250 96 96 85 89 111 140 149 150 151 155 162 166 167 169 160 155 160 170 190 194 224 238 261 285 290 297 304 298 300 302 291 277 271 267 269 266 266 264 259 252
142 171 221 258 239 225 242 254 246 140 162 174 158 156 159 160 163 168 173 169 170 164 152 143 151 153 152 157 162 182 234 259 280 292 309 318 334 332 339 327 318 316 298 289 287 293 280 254 239
151 196 156 267 241 226 221 246 258 196 199 177 164 162 165 170 177 178 173 169 164 153 147 141 140 139 139 119 109 133 128 159 324 337 357 3 352 341 337 333 323 324 315 298 293 281 268 254 244
175 198 192 237 242 245 239 232 212 226 173 154 158 163 172 178 184 180 171 167 159 151 150 145 138 131 124 101 87 93 104 91 53 26 21 30 22 352 349 347 339 338 343 320 300 287 268 253 248
194 209 248 250 250 248 229 254 210 220 160 160 167 177 182 181 178 169 165 164 158 156 153 142 127 128 120 107 102 106 96 87 66 44 37 41 42 23 13 358 352 339 338 332 311 311 261 245 235
127 5 336 302 283 262 218 274 226 205 161 168 179 184 185 185 174 171 169 166 163 159 151 141 132 127 120 115 108 105 100 96 74 51 44 43 39 33 29 15 356 339 345 354 3 358 4 347 346
38 43 334 285 264 269 153 256 251 201 171 180 188 188 187 189 180 173 164 160 159 154 151 148 134 130 126 119 108 102 104 97 76 64 52 41 36 38 39 23 353 344 10 13 11 356 359 348 338
34 24 264 283 242 229 195 249 258 200 187 192 194 191 190 186 180 176 163 159 158 155 149 138 132 137 130 113 102 92 89 88 91 79 58 40 37 41 47 27 355 4 18 11 359 16 14 328 323
187 220 264 258 256 215 237 256 266 225 200 201 200 193 191 186 189 177 164 159 155 153 145 138 137 139 125 104 94 76 68 66 78 80 66 50 36 37 43 31 9 16 26 5 0 356 355 324 311
166 163 223 247 236 215 240 254 259 238 210 203 202 198 196 193 182 166 160 155 148 148 145 147 143 145 128 114 117 114 115 149 56 305 80 63 45 39 52 33 18 20 30 6 356 6 9 358 7
172 162 253 274 263 230 257 269 265 236 215 201 194 195 194 182 164 166 162 160 159 158 157 154 152 150 143 144 153 160 164 198 218 294 326 34 48 32 50 49 35 20 29 22 11 34 36 6 35
214 188 208 237 315 307 327 321 305 284 231 196 188 188 187 181 176 175 170 171 164 162 164 163 161 154 152 143 120 89 64 42 25 349 302 293 267 47 46 49 52 35 50 30 8 43 77 34 4
233 222 205 222 43 311 60 296 303 307 250 191 192 181 184 183 177 176 174 174 175 172 164 158 159 155 154 145 137 137 142 170 221 231 256 287 255 252 2 43 51 38 32 26 359 56 82 91 38
214 212 209 261 102 337 345 146 293 326 210 230 215 195 189 184 179 180 181 179 176 165 159 159 155 156 160 154 149 146 159 196 223 245 255 287 292 288 300 35 50 35 24 16 18 39 58 90 98
167 50 31 45 69 343 272 154 275 263 226 227 222 205 192 187 183 180 175 165 164 159 156 155 156 165 168 162 159 161 173 185 185 213 235 268 282 298 292 310 41 32 15 12 20 38 58 76 90
81 72 30 15 15 272 301 97 257 264 245 201 195 203 191 182 175 170 167 170 170 168 166 164 163 170 177 171 173 181 188 187 194 208 210 204 218 245 255 244 212 286 330 24 51 58 56 69 93
150 131 142 166 250 294 351 25 271 279 262 211 185 185 171 176 179 179 181 179 178 178 174 171 172 175 179 179 186 192 191 188 199 204 197 195 206 221 229 220 209 226 348 56 63 69 71 79 88
113 134 167 138 119 8 338 332 324 346 335 359 124 156 182 187 188 187 185 184 182 182 182 179 178 178 182 184 185 191 193 189 195 199 193 194 207 217 219 218 205 221 184 110 90 73 59 89 93
145 145 85 86 96 357 331 313 259 264 262 268 231 213 216 202 197 195 191 191 190 188 185 180 178 181 183 184 186 190 195 194 193 186 192 198 211 217 206 216 217 220 194 144 120 99 53 86 88
50 75 98 104 135 139 301 285 247 238 238 229 236 233 222 213 207 202 201 198 192 185 182 182 183 180 183 188 191 189 196 198 195 194 203 202 210 212 211 212 210 208 199 178 141 151 108 91 47
164 168 140 136 203 157 168 268 283 267 265 252 258 266 257 229 217 210 203 194 189 189 189 188 186 185 189 189 190 196 201 196 195 202 208 205 210 216 218 209 195 199 192 177 164 176 158 145 140
Height
1512 1513 1514 1515 1517 1521 1522 1516 1510 1507 1505 1504 1502 1502 1506 1510 1513 1520 1518 1517 1518 1519 1520 1521 1521 1522 1522 1522 1522 1522 1522 1522 1522 1522 1522 1522 1522 1522 1522 1522 1522 1522 1522 1522 1522 1522 1522 1522 1522
1512 1513 1515 1515 1519 1527 1523 1513 1510 1504 1504 1503 1503 1505 1507 1511 1513 1515 1515 1517 1519 1520 1520 1521 1521 1521 1521 1521 1521 1521 1521 1521 1521 1521 1521 1520 1521 1521 1521 1521 1521 1521 1521 1521 1521 1521 1521 1521 1521
1512 1513 1514 1515 1520 1523 1520 1511 1506 1502 1502 1501 1505 1507 1509 1512 1514 1515 1516 1518 1519 1520 1521 1521 1521 1521 1521 1521 1520 1520 1520 1520 1519 1519 1519 1519 1519 1519 1519 1519 1519 1519 1519 1520 1520 1520 1520 1520 1520
1512 1514 1514 1517 1520 1515 1512 1508 1505 1503 1502 1502 1504 1509 1512 1514 1514 1515 1516 1518 1519 1520 1521 1521 1521 1521 1520 1520 1520 1519 1519 1518 1518 1518 1517 1517 1517 1517 1517 1517 1517 1517 1518 1518 1518 1518 1519 1519 1519
1512 1512 1516 1519 1516 1511 1508 1505 1504 1503 1503 1504 1504 1509 1513 1514 1514 1516 1517 1519 1520 1520 1521 1521 1521 1520 1520 1519 1519 1518 1517 1517 1516 1516 1515 1515 1515 1515 1515 1515 1515 1515 1516 1516 1516 1517 1517 1517 1518
1512 1512 1519 1522 1516 1510 1506 1505 1505 1503 1504 1505 1506 1510 1514 1516 1516 1517 1518 1519 1520 1520 1521 1521 1521 1520 1520 1519 1518 1517 1517 1516 1515 1514 1514 1513 1513 1513 1513 1513 1513 1513 1513 1514 1514 1514 1515 1515 1516
1511 1513 1517 1516 1516 1512 1506 1504 1503 1503 1504 1505 1506 1510 1514 1516 1516 1517 1518 1519 1520 1520 1521 1521 1520 1520 1519 1519 1518 1517 1516 1515 1514 1513 1512 1512 1511 1511 1511 1511 1511 1511 1511 1511 1511 1512 1513 1513 1514
1509 1513 1515 1515 1514 1511 1505 1504 1502 1502 1503 1505 1506 1508 1511 1514 1516 1517 1518 1519 1520 1520 1520 1520 1520 1519 1519 1518 1518 1517 1516 1515 1514 1513 1512 1511 1510 1510 1509 1509 1509 1508 1508 1509 1509 1509 1510 1511 1511
1509 1515 1518 1514 1512 1509 1505 1504 1502 1502 1503 1504 1505 1506 1508 1512 1515 1517 1518 1519 1520 1520 1520 1520 1519 1519 1518 1518 1517 1516 1515 1514 1513 1512 1511 1510 1509 1508 1508 1507 1507 1507 1506 1506 1506 1507 1507 1508 1509
1508 1516 1513 1508 1507 1506 1505 1504 1503 1503 1503 1504 1505 1506 1509 1511 1514 1515 1517 1518 1519 1519 1519 1519 1519 1518 1518 1517 1517 1516 1515 1514 1513 1512 1511 1509 1508 1508 1507 1506 1505 1505 1505 1504 1504 1505 1505 1506 1506
1507 1511 1508 1506 1504 1504 1504 1503 1502 1503 1504 1503 1503 1506 1509 1511 1513 1514 1516 1517 1518 1518 1518 1518 1518 1517 1517 1517 1516 1515 1514 1513 1512 1511 1510 1509 1508 1507 1506 1505 1504 1503 1503 1503 1503 1503 1503 1503 1504
1507 1507 1507 1506 1503 1503 1504 1502 1501 1501 1500 1500 1502 1504 1507 1509 1511 1513 1514 1516 1517 1517 1517 1517 1517 1517 1516 1516 1515 1514 1514 1513 1512 1511 1509 1508 1507 1506 1504 1503 1503 1502 1502 1501 1501 1501 1501 1502 1502
1506 1506 1506 1505 1502 1502 1502 1501 1500 1499 1498 1500 1502 1504 1505 1508 1510 1512 1513 1515 1516 1516 1517 1517 1516 1516 1516 1515 1514 1514 1513 1512 1511 1510 1509 1507 1506 1505 1504 1502 1502 1501 1500 1500 1500 1500 1500 1500 1501
1505 1505 1505 1503 1501 1501 1501 1499 1500 1498 1498 1499 1501 1503 1504 1506 1508 1510 1512 1513 1514 1515 1515 1516 1515 1515 1515 1514 1513 1513 1512 1511 1511 1509 1508 1506 1505 1504 1503 1501 1500 1499 1499 1498 1498 1498 1498 1499 1499
1505 1506 1505 1502 1501 1501 1501 1501 1497 1495 1497 1498 1500 1501 1503 1504 1506 1508 1509 1511 1512 1513 1514 1514 1514 1514 1514 1513 1512 1512 1511 1511 1510 1508 1507 1505 1504 1503 1502 1500 1499 1498 1498 1497 1497 1496 1497 1497 1497
1506 1509 1513 1503 1501 1500 1503 1505 1493 1493 1494 1496 1498 1499 1501 1503 1504 1506 1508 1509 1511 1512 1512 1513 1513 1513 1513 1512 1511 1511 1511 1510 1509 1507 1506 1504 1503 1502 1500 1499 1498 1497 1496 1496 1495 1495 1495 1495 1496
1512 1517 1514 1506 1499 1499 1501 1501 1491 1491 1492 1493 1495 1497 1499 1501 1503 1504 1506 1507 1509 1510 1511 1511 1512 1512 1512 1511 1511 1510 1510 1509 1508 1507 1505 1504 1502 1501 1499 1498 1497 1497 1495 1495 1494 1494 1494 1494 1495
1517 1516 1513 1508 1499 1499 1500 1498 1490 1489 1490 1490 1492 1494 1496 1498 1500 1502 1504 1506 1507 1509 1510 1510 1510 1511 1510 1510 1510 1510 1509 1508 1507 1506 1505 1503 1501 1500 1499 1498 1497 1496 1495 1494 1493 1493 1493 1493 1494
1509 1511 1511 1504 1496 1498 1497 1494 1488 1486 1488 1488 1489 1491 1493 1495 1498 1501 1503 1505 1506 1507 1508 1509 1509 1509 1509 1509 1509 1509 1508 1507 1507 1505 1504 1503 1501 1500 1499 1498 1496 1495 1494 1493 1492 1492 1492 1492 1493
1506 1509 1509 1502 1494 1496 1496 1493 1486 1483 1483 1482 1485 1488 1490 1493 1497 1499 1501 1503 1504 1505 1506 1507 1507 1508 1508 1508 1508 1508 1507 1507 1506 1505 1504 1503 1501 1500 1499 1497 1496 1495 1494 1493 1492 1491 1492 1492 1492
1504 1506 1505 1503 1496 1494 1497 1498 1488 1481 1479 1481 1483 1485 1487 1490 1493 1496 1498 1501 1502 1504 1504 1505 1506 1506 1507 1507 1507 1507 1506 1506 1505 1505 1504 1503 1501 1500 1499 1497 1496 1495 1494 1492 1492 1491 1492 1492 1492
1505 1496 1497 1498 1505 1509 1503 1517 1496 1487 1482 1481 1482 1483 1485 1488 1491 1493 1496 1498 1500 1502 1503 1504 1504 1505 1505 1506 1505 1505 1505 1505 1505 1504 1503 1502 1501 1500 1499 1498 1496 1495 1494 1493 1492 1492 1492 1492 1492
1496 1490 1494 1496 1504 1511 1507 1515 1506 1490 1488 1483 1481 1482 1484 1485 1488 1491 1493 1495 1498 1500 1501 1502 1503 1503 1504 1504 1504 1504 1504 1504 1504 1504 1503 1502 1501 1500 1499 1498 1497 1495 1494 1493 1492 1492 1492 1492 1493
1488 1493 1499 1505 1512 1522 1509 1514 1510 1498 1488 1483 1481 1481 1483 1484 1486 1489 1492 1495 1497 1499 1500 1500 1501 1502 1502 1503 1503 1503 1503 1503 1503 1503 1503 1502 1501 1500 1499 1498 1497 1496 1495 1494 1493 1493 1493 1493 1493
1492 1509 1525 1527 1533 1527 1507 1510 1508 1489 1482 1480 1480 1480 1481 1482 1485 1487 1490 1493 1494 1496 1497 1498 1499 1500 1501 1501 1501 1502 1502 1502 1502 1502 1502 1501 1501 1500 1499 1498 1497 1496 1495 1494 1493 1493 1493 1493 1493
1495 1507 1526 1534 1535 1527 1512 1512 1501 1484 1481 1480 1479 1479 1480 1481 1483 1485 1487 1489 1491 1493 1495 1496 1497 1498 1499 1499 1500 1500 1501 1501 1501 1501 1501 1501 1501 1500 1499 1499 1498 1497 1496 1495 1494 1493 1493 1493 1493
1494 1503 1505 1520 1522 1528 1521 1507 1494 1485 1484 1482 1481 1480 1480 1481 1482 1483 1485 1487 1489 1490 1492 1493 1494 1496 1497 1498 1498 1499 1499 1500 1500 1500 1500 1500 1500 1500 1499 1499 1498 1497 1496 1495 1494 1494 1494 1493 1493
1488 1495 1510 1519 1531 1537 1527 1517 1511 1493 1488 1484 1482 1481 1480 1480 1480 1481 1483 1484 1486 1487 1489 1491 1492 1493 1494 1496 1496 1497 1498 1499 1499 1500 1500 1500 1499 1499 1499 1498 1498 1497 1496 1496 1495 1494 1494 1494 1493
1492 1496 1507 1520 1525 1536 1536 1525 1496 1491 1486 1484 1481 1480 1479 1478 1478 1479 1480 1481 1483 1485 1487 1488 1489 1491 1492 1493 1494 1495 1496 1497 1498 1498 1498 1499 1499 1499 1498 1498 1498 1497 1496 1496 1495 1495 1494 1494 1493
1488 1493 1503 1519 1522 1527 1533 1524 1488 1487 1484 1482 1480 1479 1478 1477 1477 1477 1478 1479 1481 1482 1483 1485 1486 1488 1489 1491 1492 1493 1495 1496 1496 1497 1497 1498 1498 1498 1498 1497 1497 1497 1496 1496 1495 1495 1494 1494 1494